Weather in Olinda

Brazil     8°00′27″S   34°51′28″W
temp.,
°C
wind,
m/s
gust,
m/s
humid.,
%
clouds,
%
prec.,
mm/h
press.,
hPa
HPBL,
m
20 april, tue
tue2000:00+27ene237795 1.0 1012454
03:00+27ne127752 2.1 1011497
06:00+26nnw118015 1.3 1012308
09:00+27nw11756 2.5 1014397
12:00+27e2373100 0.6 1012734
15:00+28e3373100 0.6 1010745
18:00+28e447553 0.0 1012708
21:00+27e557614 0.0 1013729
21 april, wed
wed2100:00+27e557693 0.0 1012743
03:00+27e447441 0.1 1011743
06:00+27ene337296 0.1 1012786
09:00+28ene3369100 0.1 1014872
12:00+28ene336913 0.0 1012700
15:00+28ene336993 0.0 1010618
18:00+28ene4572100 0.0 1011643
21:00+28e557499 0.0 1013637
22 april, thu
thu2200:00+27ese457913 0.0 1012614
03:00+27e448226 0.4 1011559
06:00+27e457931 1.7 1012635
09:00+28e557711 2.9 1014773
12:00+28e55717 0.7 1012903
15:00+28e44716 0.7 1010879
18:00+28e457518 0.0 1011768
21:00+28e667547 0.1 1013844
23 april, fri
fri2300:00+28e5674100 0.0 1012831
03:00+27ese5673100 0.3 1011803
06:00+28se5572100 0.1 1013680
09:00+28ese6669100 0.3 10141035
12:00+28se4470100 0.0 1013831
15:00+28se447127 0.0 1011843
18:00+28se457269 0.0 1012808
21:00+28ese4475100 0.1 1013681
24 april, sat
sat2400:00+27se4476100 0.4 1012674
03:00+27se5577100 2.0 1011741
06:00+27se5574100 0.3 1012796
09:00+28se557399 0.4 1013904
12:00+28sse667361 0.2 1012895
15:00+28se567522 0.9 1011834
18:00+27se777653 1.3 1012871
21:00+27se567211 1.4 1013876